| time (UTC) | temp C | wind direction | speed KPH | gust KPH | rain 1hr cm | rain 24hr cm | rain mn cm | humidity % | barometer mb |
| 20260504081555 | 6 | 186 | 9.7 | 12.9 | 0.00 | 0.00 | 0.00 | 66 | 1003.1 |
| 20260504044546 | 5 | 178 | 1.6 | 4.8 | 0.00 | 0.00 | 0.00 | 62 | 1004.7 |
| 20260504044544 | 5 | 193 | 1.6 | 4.8 | 0.00 | 0.00 | 0.00 | 62 | 1004.7 |
| 20260504043043 | 6 | 197 | 3.2 | 4.8 | 0.00 | 0.00 | 0.00 | 59 | 1004.8 |
| 20260504041542 | 5 | 193 | 1.6 | 4.8 | 0.00 | 0.00 | 0.00 | 62 | 1004.9 |
| 20260504041540 | 5 | 193 | 1.6 | 4.8 | 0.00 | 0.00 | 0.00 | 62 | 1004.8 |
| 20260504040041 | 6 | 130 | 1.6 | 4.8 | 0.00 | 0.00 | 0.00 | 58 | 1004.8 |
| 20260504034539 | 6 | 124 | 1.6 | 4.8 | 0.00 | 0.00 | 0.00 | 56 | 1004.7 |
| 20260504033036 | 7 | 120 | 3.2 | 4.8 | 0.00 | 0.00 | 0.00 | 50 | 1004.6 |
| 20260504031548 | 8 | 108 | 1.6 | 4.8 | 0.00 | 0.00 | 0.00 | 49 | 1004.5 |
| 20260504030035 | 10 | 120 | 4.8 | 9.7 | 0.00 | 0.00 | 0.00 | 45 | 1004.4 |
| 20260504024533 | 10 | 135 | 0.0 | 3.2 | 0.00 | 0.00 | 0.00 | 43 | 1004.3 |
| 20260504023030 | 11 | 253 | 1.6 | 8.0 | 0.00 | 0.00 | 0.00 | 41 | 1004.3 |
| 20260504021528 | 13 | 269 | 4.8 | 9.7 | 0.00 | 0.00 | 0.00 | 37 | 1004.2 |
| 20260504020026 | 15 | 302 | 6.4 | 11.3 | 0.00 | 0.00 | 0.00 | 33 | 1004.2 |
| 20260504014531 | 16 | 311 | 6.4 | 9.7 | 0.00 | 0.00 | 0.00 | 29 | 1004.3 |
| 20260504013025 | 17 | 321 | 8.0 | 14.5 | 0.00 | 0.00 | 0.00 | 28 | 1004.3 |
| 20260504011522 | 17 | 316 | 9.7 | 22.5 | 0.00 | 0.00 | 0.00 | 28 | 1004.5 |
| 20260504010020 | 18 | 347 | 8.0 | 19.3 | 0.00 | 0.00 | 0.00 | 27 | 1004.5 |
| 20260504004521 | 18 | 337 | 11.3 | 20.9 | 0.00 | 0.00 | 0.00 | 27 | 1004.4 |
| 20260504003016 | 18 | 309 | 14.5 | 27.4 | 0.00 | 0.00 | 0.00 | 27 | 1004.6 |
| 20260504001514 | 18 | 20 | 11.3 | 24.1 | 0.00 | 0.00 | 0.00 | 28 | 1004.8 |
| 20260504000008 | 18 | 346 | 16.1 | 27.4 | 0.00 | 0.00 | 0.00 | 26 | 1004.9 |
| 20260503234507 | 18 | 344 | 12.9 | 20.9 | 0.00 | 0.00 | 0.00 | 28 | 1005.0 |
| 20260503233014 | 18 | 276 | 6.4 | 24.1 | 0.00 | 0.00 | 0.00 | 29 | 1005.1 |
| 20260503231503 | 18 | 243 | 12.9 | 29.0 | 0.00 | 0.00 | 0.00 | 28 | 1005.2 |
| 20260503230030 | 18 | 236 | 19.3 | 27.4 | 0.00 | 0.00 | 0.00 | 29 | 1005.3 |
| 20260503224528 | 18 | 269 | 11.3 | 25.7 | 0.00 | 0.00 | 0.00 | 29 | 1005.5 |
| 20260503223054 | 18 | 269 | 12.9 | 20.9 | 0.00 | 0.00 | 0.00 | 29 | 1005.7 |
| 20260503221558 | 17 | 243 | 14.5 | 29.0 | 0.00 | 0.00 | 0.00 | 29 | 1005.8 |
| 20260503220046 | 17 | 281 | 20.9 | 29.0 | 0.00 | 0.00 | 0.00 | 29 | 1006.1 |
| 20260503214542 | 17 | 300 | 20.9 | 35.4 | 0.00 | 0.00 | 0.00 | 29 | 1006.2 |
| 20260503213042 | 17 | 269 | 27.4 | 45.1 | 0.00 | 0.00 | 0.00 | 29 | 1006.5 |
| 20260503211538 | 16 | 269 | 33.8 | 46.7 | 0.00 | 0.00 | 0.00 | 33 | 1006.6 |
| 20260503210031 | 17 | 337 | 16.1 | 25.7 | 0.00 | 0.00 | 0.00 | 31 | 1006.7 |
| 20260503204530 | 17 | 322 | 16.1 | 24.1 | 0.00 | 0.00 | 0.00 | 33 | 1006.9 |
| 20260503203027 | 17 | 354 | 8.0 | 25.7 | 0.00 | 0.00 | 0.00 | 32 | 1007.0 |
| 20260503201526 | 18 | 306 | 17.7 | 22.5 | 0.00 | 0.00 | 0.00 | 30 | 1007.0 |
| 20260503200022 | 17 | 18 | 12.9 | 19.3 | 0.00 | 0.00 | 0.00 | 32 | 1007.0 |
| 20260503194522 | 17 | 308 | 6.4 | 16.1 | 0.00 | 0.00 | 0.00 | 37 | 1007.1 |
| 20260503193015 | 16 | 352 | 9.7 | 16.1 | 0.00 | 0.00 | 0.00 | 39 | 1007.3 |
| 20260503191510 | 15 | 30 | 14.5 | 20.9 | 0.00 | 0.00 | 0.00 | 44 | 1007.6 |
| 20260503190004 | 16 | 338 | 16.1 | 24.1 | 0.00 | 0.00 | 0.00 | 37 | 1008.1 |
| 20260503184503 | 16 | 310 | 11.3 | 22.5 | 0.00 | 0.00 | 0.00 | 32 | 1008.2 |
| 20260503183058 | 16 | 231 | 16.1 | 27.4 | 0.00 | 0.00 | 0.00 | 34 | 1008.4 |
| 20260503181555 | 17 | 250 | 9.7 | 29.0 | 0.00 | 0.00 | 0.00 | 33 | 1008.7 |
| 20260503180058 | 16 | 238 | 11.3 | 27.4 | 0.00 | 0.00 | 0.00 | 35 | 1008.9 |
| 20260503174544 | 16 | 178 | 16.1 | 25.7 | 0.00 | 0.00 | 0.00 | 37 | 1009.0 |
| 20260503173112 | 16 | 198 | 24.1 | 27.4 | 0.00 | 0.00 | 0.00 | 37 | 1009.2 |
| 20260503171507 | 15 | 195 | 16.1 | 27.4 | 0.00 | 0.00 | 0.00 | 37 | 1009.4 |